Sturgeon Bay, WI

3:51 PM CST on November 18, 2017 (GMT -0600)
Door County Cherryland

Weather History for KSUE - December, 2014

Change the Weather History Date:

Wednesday, December 3, 2014

  Actual Average Record
Temperature  
Mean Temperature 22 °F -  
Max Temperature 26 °F 33 °F 57 °F (1998)
Min Temperature 17 °F 21 °F -4 °F (1919)
Degree Days  
Heating Degree Days 44    
Moisture  
Dew Point 10 °F    
Average Humidity 62    
Maximum Humidity 80    
Minimum Humidity 50    
Precipitation  
Precipitation 0.00 in - - ()
Sea Level Pressure  
Sea Level Pressure 30.08 in    
Wind  
Wind Speed 13 mph (West)    
Max Wind Speed 21 mph    
Max Gust Speed 30 mph    
Visibility 10 miles    
Events      
Averages and records for this station are not official NWS values.
T = Trace of Precipitation, MM = Missing Value Source: NWS Daily Summary

Daily Weather History Graph

Daily Weather History Graph

Search for Another Location

Airport or City:

Trip Planner

Search our weather history database for the weather conditions in past years. The results will help you decide how hot, cold, wet, or windy it might be!

Date:

Astronomy

Dec. 03, 2014 Rise Set
Actual Time 7:09 AM CST 4:09 PM CST
Civil Twilight 6:36 AM CST 4:42 PM CST
Nautical Twilight 5:59 AM CST 5:19 PM CST
Astronomical Twilight 5:24 AM CST 5:54 PM CST
Moon 2:36 PM CST (12/3) 3:48 AM CST (12/3)
Length of Visible Light 10h 06m
Length of Day
9h 00m
Waxing Gibbous, 91% of the Moon is Illuminated
Dec 3
Waxing Gibbous
Dec 6
Full
Dec 14
Last Quarter
Dec 21
New
Dec 28
First Quarter

Hourly Weather History & Observations

Time (CST) Temp. Windchill Dew Point Humidity Pressure Visibility Wind Dir Wind Speed Gust Speed Precip Events Conditions
12:15 AM 26.6 °F 15.2 °F 17.6 °F 69% 29.92 in 10.0 mi West 13.8 mph 17.3 mph N/A   Overcast
12:35 AM 26.6 °F 16.8 °F 17.6 °F 69% 29.91 in 10.0 mi West 10.4 mph - N/A   Overcast
12:55 AM 26.6 °F 16.8 °F 17.6 °F 69% 29.91 in 10.0 mi WSW 10.4 mph - N/A   Overcast
1:15 AM 26.6 °F 15.2 °F 17.6 °F 69% 29.91 in 10.0 mi WSW 13.8 mph 18.4 mph N/A   Overcast
1:35 AM 26.6 °F 16.2 °F 17.6 °F 69% 29.91 in 10.0 mi WSW 11.5 mph - N/A   Overcast
1:55 AM 26.6 °F 16.2 °F 17.6 °F 69% 29.91 in 10.0 mi West 11.5 mph 20.7 mph N/A   Overcast
2:15 AM 26.6 °F 16.2 °F 15.8 °F 64% 29.91 in 10.0 mi West 11.5 mph - N/A   Overcast
2:35 AM 24.8 °F 13.4 °F 15.8 °F 69% 29.92 in 10.0 mi West 12.7 mph 18.4 mph N/A   Overcast
2:55 AM 24.8 °F 14.0 °F 14.0 °F 64% 29.91 in 10.0 mi West 11.5 mph 19.6 mph N/A   Mostly Cloudy
3:15 AM 24.8 °F 13.4 °F 14.0 °F 64% 29.92 in 10.0 mi West 12.7 mph 16.1 mph N/A   Partly Cloudy
3:35 AM 24.8 °F 14.0 °F 14.0 °F 64% 29.92 in 10.0 mi West 11.5 mph - N/A   Clear
3:55 AM 24.8 °F 14.0 °F 14.0 °F 64% 29.92 in 10.0 mi West 11.5 mph - N/A   Clear
4:15 AM 23.0 °F 11.7 °F 14.0 °F 68% 29.92 in 10.0 mi West 11.5 mph - N/A   Clear
4:35 AM 23.0 °F 12.4 °F 14.0 °F 68% 29.93 in 10.0 mi West 10.4 mph 16.1 mph N/A   Clear
4:55 AM 23.0 °F 11.1 °F 14.0 °F 68% 29.93 in 10.0 mi West 12.7 mph - N/A   Clear
5:15 AM 21.2 °F 8.9 °F 15.8 °F 80% 29.93 in 10.0 mi West 12.7 mph - N/A   Clear
5:35 AM 21.2 °F 8.9 °F 14.0 °F 74% 29.93 in 10.0 mi West 12.7 mph - N/A   Clear
5:55 AM 21.2 °F 8.9 °F 14.0 °F 74% 29.94 in 10.0 mi West 12.7 mph - N/A   Clear
6:15 AM 21.2 °F 10.1 °F 12.2 °F 68% 29.94 in 10.0 mi West 10.4 mph - N/A   Clear
6:35 AM 21.2 °F 9.5 °F 12.2 °F 68% 29.95 in 10.0 mi West 11.5 mph - N/A   Clear
6:55 AM 19.4 °F 6.6 °F 12.2 °F 74% 29.95 in 10.0 mi West 12.7 mph - N/A   Clear
7:15 AM 19.4 °F 7.2 °F 12.2 °F 74% 29.96 in 10.0 mi West 11.5 mph - N/A   Clear
7:35 AM 19.4 °F 5.0 °F 12.2 °F 74% 29.96 in 10.0 mi West 16.1 mph 23.0 mph N/A   Clear
7:55 AM 19.4 °F 6.0 °F 12.2 °F 74% 29.98 in 10.0 mi West 13.8 mph - N/A   Clear
8:15 AM 19.4 °F 4.5 °F 12.2 °F 74% 29.99 in 10.0 mi West 17.3 mph 21.9 mph N/A   Clear
8:35 AM 19.4 °F 5.0 °F 10.4 °F 68% 29.99 in 10.0 mi West 16.1 mph 25.3 mph N/A   Clear
8:55 AM 19.4 °F 4.5 °F 10.4 °F 68% 30.01 in 10.0 mi West 17.3 mph 24.2 mph N/A   Clear
9:15 AM 19.4 °F 5.0 °F 10.4 °F 68% 30.02 in 10.0 mi West 16.1 mph 24.2 mph N/A   Clear
9:35 AM 19.4 °F 4.1 °F 8.6 °F 63% 30.03 in 10.0 mi West 18.4 mph 25.3 mph N/A   Clear
9:55 AM 19.4 °F 5.0 °F 8.6 °F 63% 30.05 in 10.0 mi West 16.1 mph 20.7 mph N/A   Clear
10:15 AM 19.4 °F 4.5 °F 8.6 °F 63% 30.05 in 10.0 mi West 17.3 mph 24.2 mph N/A   Clear
10:35 AM 21.2 °F 8.3 °F 8.6 °F 58% 30.06 in 10.0 mi West 13.8 mph 21.9 mph N/A   Clear
10:55 AM 21.2 °F 7.3 °F 8.6 °F 58% 30.06 in 10.0 mi West 16.1 mph 24.2 mph N/A   Clear
11:15 AM 21.2 °F 8.3 °F 8.6 °F 58% 30.06 in 10.0 mi West 13.8 mph 25.3 mph N/A   Clear
11:35 AM 21.2 °F 6.0 °F 10.4 °F 63% 30.06 in 10.0 mi West 19.6 mph 26.5 mph N/A   Clear
11:55 AM 23.0 °F 8.0 °F 10.4 °F 59% 30.05 in 10.0 mi WNW 20.7 mph 27.6 mph N/A   Clear
12:15 PM 23.0 °F 8.7 °F 10.4 °F 59% 30.06 in 10.0 mi West 18.4 mph 29.9 mph N/A   Clear
12:35 PM 23.0 °F 9.6 °F 10.4 °F 59% 30.06 in 10.0 mi WNW 16.1 mph 26.5 mph N/A   Clear
12:55 PM 23.0 °F 9.6 °F 10.4 °F 59% 30.06 in 10.0 mi West 16.1 mph 26.5 mph N/A   Clear
1:15 PM 24.8 °F 11.1 °F 10.4 °F 54% 30.07 in 10.0 mi WNW 18.4 mph 23.0 mph N/A   Clear
1:35 PM 24.8 °F 11.9 °F 10.4 °F 54% 30.07 in 10.0 mi West 16.1 mph 25.3 mph N/A   Clear
1:55 PM 24.8 °F 11.1 °F 10.4 °F 54% 30.07 in 10.0 mi West 18.4 mph 25.3 mph N/A   Clear
2:15 PM 24.8 °F 11.5 °F 8.6 °F 50% 30.09 in 10.0 mi West 17.3 mph 23.0 mph N/A   Clear
2:35 PM 24.8 °F 12.4 °F 8.6 °F 50% 30.09 in 10.0 mi West 15.0 mph 20.7 mph N/A   Clear
2:55 PM 24.8 °F 14.6 °F 8.6 °F 50% 30.11 in 10.0 mi West 10.4 mph - N/A   Clear
3:15 PM 23.0 °F 10.6 °F 8.6 °F 54% 30.13 in 10.0 mi West 13.8 mph 19.6 mph N/A   Clear
3:35 PM 23.0 °F 11.7 °F 8.6 °F 54% 30.13 in 10.0 mi West 11.5 mph - N/A   Clear
3:55 PM 23.0 °F 12.4 °F 6.8 °F 50% 30.14 in 10.0 mi West 10.4 mph - N/A   Clear
4:15 PM 21.2 °F 10.1 °F 6.8 °F 54% 30.16 in 10.0 mi West 10.4 mph 18.4 mph N/A   Clear
4:35 PM 21.2 °F 9.5 °F 6.8 °F 54% 30.18 in 10.0 mi West 11.5 mph 18.4 mph N/A   Clear
4:55 PM 21.2 °F 8.9 °F 6.8 °F 54% 30.19 in 10.0 mi West 12.7 mph 17.3 mph N/A   Clear
5:15 PM 21.2 °F 10.1 °F 6.8 °F 54% 30.21 in 10.0 mi West 10.4 mph 17.3 mph N/A   Clear
5:35 PM 21.2 °F 8.9 °F 6.8 °F 54% 30.22 in 10.0 mi West 12.7 mph 19.6 mph N/A   Partly Cloudy
5:55 PM 21.2 °F 8.3 °F 8.6 °F 58% 30.24 in 10.0 mi West 13.8 mph 20.7 mph N/A   Scattered Clouds
6:15 PM 21.2 °F 8.3 °F 8.6 °F 58% 30.26 in 10.0 mi WNW 13.8 mph 18.4 mph N/A   Partly Cloudy
6:35 PM 21.2 °F 7.3 °F 6.8 °F 54% 30.27 in 10.0 mi WNW 16.1 mph 23.0 mph N/A   Clear
6:55 PM 21.2 °F 7.8 °F 6.8 °F 54% 30.28 in 10.0 mi WNW 15.0 mph 24.2 mph N/A   Partly Cloudy
7:15 PM 21.2 °F 8.9 °F 8.6 °F 58% 30.28 in 10.0 mi WNW 12.7 mph 18.4 mph N/A   Partly Cloudy
7:35 PM 21.2 °F 8.3 °F 6.8 °F 54% 30.29 in 10.0 mi WNW 13.8 mph 21.9 mph N/A   Clear
7:55 PM 21.2 °F 8.3 °F 6.8 °F 54% 30.29 in 10.0 mi WNW 13.8 mph 21.9 mph N/A   Clear
8:15 PM 21.2 °F 8.9 °F 6.8 °F 54% 30.29 in 10.0 mi WNW 12.7 mph 21.9 mph N/A   Clear
8:35 PM 21.2 °F 10.1 °F 6.8 °F 54% 30.29 in 10.0 mi WNW 10.4 mph 17.3 mph N/A   Clear
8:55 PM 21.2 °F 8.9 °F 6.8 °F 54% 30.30 in 10.0 mi WNW 12.7 mph 19.6 mph N/A   Clear
9:15 PM 21.2 °F 10.1 °F 6.8 °F 54% 30.30 in 10.0 mi WNW 10.4 mph - N/A   Clear
9:35 PM 19.4 °F 8.6 °F 6.8 °F 58% 30.30 in 10.0 mi West 9.2 mph - N/A   Clear
9:55 PM 19.4 °F 9.5 °F 6.8 °F 58% 30.30 in 10.0 mi West 8.1 mph - N/A   Clear
10:15 PM 19.4 °F 10.4 °F 6.8 °F 58% 30.30 in 10.0 mi West 6.9 mph - N/A   Clear
10:35 PM 19.4 °F 10.4 °F 6.8 °F 58% 30.30 in 10.0 mi West 6.9 mph - N/A   Clear
10:55 PM 17.6 °F 7.3 °F 6.8 °F 63% 30.31 in 10.0 mi West 8.1 mph - N/A   Clear
11:15 PM 17.6 °F 7.3 °F 6.8 °F 63% 30.31 in 10.0 mi West 8.1 mph - N/A   Clear
11:35 PM 17.6 °F 7.3 °F 6.8 °F 63% 30.32 in 10.0 mi West 8.1 mph - N/A   Clear
11:55 PM 19.4 °F 8.6 °F 6.8 °F 58% 30.32 in 10.0 mi West 9.2 mph - N/A   Clear